Location: Fountain Hills
(33.6120°N, 111.7170°W)
Time: 12:51:41
(UTC-07:00)

Hamsat - Visible Passes

Search period start: 21 August 2017 00:00
Search period end: 31 August 2017 00:00
Orbit: 586 x 617 km, 97.7° (Epoch: 21 August)

Date Brightness Start Highest point End Pass type
(mag) Time Alt. Az. Time Alt. Az. Time Alt. Az.
21 Aug ? 03:41:25 10° NE 03:44:58 25° E 03:47:51 13° SE visible
21 Aug ? 05:17:16 10° NNW 05:20:34 22° WNW 05:23:51 10° WSW visible
22 Aug ? 03:52:47 10° NNE 03:56:43 34° E 03:59:35 16° SSE visible
23 Aug ? 04:04:16 10° NNE 04:08:26 48° E 04:11:20 18° SSE visible
24 Aug ? 04:15:51 10° NNE 04:20:08 69° E 04:23:04 19° S visible
25 Aug ? 04:27:30 10° N 04:31:49 85° W 04:34:48 19° SSW visible
26 Aug ? 04:39:14 10° N 04:43:28 60° WNW 04:46:33 18° SSW visible
27 Aug ? 03:17:23 10° ENE 03:19:10 12° E 03:20:57 10° ESE visible
27 Aug ? 04:51:03 10° N 04:55:06 42° WNW 04:58:17 15° SW visible
28 Aug ? 03:28:07 10° NE 03:30:57 17° E 03:33:13 12° SE visible
28 Aug ? 05:02:57 10° N 05:06:43 31° WNW 05:10:00 12° SW visible
29 Aug ? 03:39:15 10° NE 03:42:41 24° E 03:44:57 16° SE visible
29 Aug ? 05:14:58 10° NNW 05:18:19 23° WNW 05:21:37 10° WSW visible
30 Aug ? 03:50:35 10° NNE 03:54:26 32° E 03:56:41 20° SSE visible
30 Aug ? 05:27:10 10° NNW 05:29:53 17° WNW 05:32:36 10° WSW visible
